| time (UTC) | temp C | wind direction | speed KPH | gust KPH | rain 1hr cm | rain 24hr cm | rain mn cm | humidity % | barometer mb |
| 20260509034828 | 17 | 332 | 0.0 | 6.4 | 0.00 | 0.00 | 0.00 | 41 | -103.1 |
| 20260509034329 | 17 | 333 | 1.6 | 6.4 | 0.00 | 0.00 | 0.00 | 41 | -103.1 |
| 20260509033828 | 17 | 77 | 0.0 | 1.6 | 0.00 | 0.00 | 0.00 | 40 | -103.1 |
| 20260509033328 | 17 | 77 | 0.0 | 1.6 | 0.00 | 0.00 | 0.00 | 40 | -103.1 |
| 20260509032827 | 17 | 77 | 0.0 | 1.6 | 0.00 | 0.00 | 0.00 | 38 | -103.1 |
| 20260509013829 | 20 | 160 | 0.0 | 3.2 | 0.00 | 0.00 | 0.00 | 30 | -103.3 |
| 20260509013331 | 20 | 155 | 0.0 | 4.8 | 0.00 | 0.00 | 0.00 | 29 | -103.3 |
| 20260509012833 | 20 | 162 | 1.6 | 6.4 | 0.00 | 0.00 | 0.00 | 29 | -103.3 |
| 20260509012334 | 21 | 160 | 1.6 | 6.4 | 0.00 | 0.00 | 0.00 | 29 | -103.3 |
| 20260509011832 | 21 | 165 | 3.2 | 6.4 | 0.00 | 0.00 | 0.00 | 29 | -103.3 |
| 20260509011350 | 21 | 155 | 0.0 | 3.2 | 0.00 | 0.00 | 0.00 | 29 | -103.3 |
| 20260509010828 | 21 | 98 | 0.0 | 4.8 | 0.00 | 0.00 | 0.00 | 30 | -103.3 |
| 20260509010329 | 21 | 145 | 1.6 | 8.0 | 0.00 | 0.00 | 0.00 | 29 | -103.3 |
| 20260509005824 | 21 | 247 | 1.6 | 8.0 | 0.00 | 0.00 | 0.00 | 29 | -103.3 |
| 20260509005326 | 22 | 190 | 1.6 | 6.4 | 0.00 | 0.00 | 0.00 | 28 | -103.3 |
| 20260509004825 | 22 | 165 | 3.2 | 9.7 | 0.00 | 0.00 | 0.00 | 27 | -103.3 |
| 20260509004328 | 22 | 132 | 3.2 | 9.7 | 0.00 | 0.00 | 0.00 | 26 | -103.3 |
| 20260509003830 | 22 | 164 | 1.6 | 6.4 | 0.00 | 0.00 | 0.00 | 27 | -103.3 |
| 20260509003353 | 22 | 169 | 1.6 | 4.8 | 0.00 | 0.00 | 0.00 | 26 | -103.3 |
| 20260509002831 | 22 | 150 | 1.6 | 3.2 | 0.00 | 0.00 | 0.00 | 24 | -103.3 |
| 20260509002329 | 22 | 138 | 0.0 | 3.2 | 0.00 | 0.00 | 0.00 | 25 | -103.3 |
| 20260509001318 | 23 | 187 | 1.6 | 4.8 | 0.00 | 0.00 | 0.00 | 23 | -103.2 |
| 20260509000817 | 23 | 134 | 0.0 | 3.2 | 0.00 | 0.00 | 0.00 | 24 | -103.2 |
| 20260509000318 | 23 | 160 | 0.0 | 8.0 | 0.00 | 0.00 | 0.00 | 25 | -103.2 |
| 20260508235832 | 23 | 156 | 3.2 | 9.7 | 0.00 | 0.00 | 0.00 | 22 | -103.2 |
| 20260508235353 | 23 | 170 | 3.2 | 9.7 | 0.00 | 0.00 | 0.00 | 23 | -103.2 |
| 20260508234832 | 23 | 137 | 1.6 | 4.8 | 0.00 | 0.00 | 0.00 | 23 | -103.2 |
| 20260508234334 | 23 | 352 | 1.6 | 4.8 | 0.00 | 0.00 | 0.00 | 24 | -103.2 |
| 20260508233815 | 23 | 28 | 0.0 | 8.0 | 0.00 | 0.00 | 0.00 | 24 | -103.2 |
| 20260508233317 | 23 | 179 | 0.0 | 9.7 | 0.00 | 0.00 | 0.00 | 24 | -103.2 |
| 20260508232838 | 23 | 155 | 3.2 | 9.7 | 0.00 | 0.00 | 0.00 | 24 | -103.2 |
| 20260508232318 | 23 | 134 | 0.0 | 8.0 | 0.00 | 0.00 | 0.00 | 24 | -103.2 |
| 20260508231817 | 23 | 210 | 1.6 | 6.4 | 0.00 | 0.00 | 0.00 | 23 | -103.2 |
| 20260508231338 | 23 | 168 | 1.6 | 8.0 | 0.00 | 0.00 | 0.00 | 24 | -103.2 |
| 20260508230816 | 23 | 140 | 1.6 | 8.0 | 0.00 | 0.00 | 0.00 | 24 | -103.2 |
| 20260508230320 | 23 | 152 | 3.2 | 8.0 | 0.00 | 0.00 | 0.00 | 24 | -103.2 |
| 20260508225817 | 23 | 165 | 1.6 | 9.7 | 0.00 | 0.00 | 0.00 | 24 | -103.2 |
| 20260508225339 | 23 | 328 | 4.8 | 9.7 | 0.00 | 0.00 | 0.00 | 23 | -103.2 |
| 20260508224837 | 23 | 155 | 1.6 | 6.4 | 0.00 | 0.00 | 0.00 | 23 | -103.2 |
| 20260508224319 | 23 | 161 | 3.2 | 6.4 | 0.00 | 0.00 | 0.00 | 24 | -103.2 |
| 20260508223817 | 23 | 151 | 1.6 | 8.0 | 0.00 | 0.00 | 0.00 | 24 | -103.2 |
| 20260508223318 | 23 | 175 | 1.6 | 11.3 | 0.00 | 0.00 | 0.00 | 24 | -103.1 |
| 20260508222816 | 23 | 155 | 4.8 | 11.3 | 0.00 | 0.00 | 0.00 | 23 | -103.2 |
| 20260508222319 | 24 | 201 | 4.8 | 8.0 | 0.00 | 0.00 | 0.00 | 24 | -103.1 |
| 20260508221820 | 23 | 162 | 3.2 | 6.4 | 0.00 | 0.00 | 0.00 | 24 | -103.1 |
| 20260508221323 | 24 | 181 | 1.6 | 8.0 | 0.00 | 0.00 | 0.00 | 26 | -103.1 |
| 20260508220843 | 24 | 166 | 3.2 | 8.0 | 0.00 | 0.00 | 0.00 | 23 | -103.1 |
| 20260508220324 | 24 | 75 | 1.6 | 6.4 | 0.00 | 0.00 | 0.00 | 24 | -103.1 |
| 20260508215821 | 24 | 178 | 3.2 | 8.0 | 0.00 | 0.00 | 0.00 | 25 | -103.1 |
| 20260508215322 | 24 | 160 | 3.2 | 8.0 | 0.00 | 0.00 | 0.00 | 26 | -103.1 |
| 20260508214820 | 24 | 118 | 1.6 | 4.8 | 0.00 | 0.00 | 0.00 | 25 | -103.1 |
| 20260508214343 | 23 | 167 | 1.6 | 6.4 | 0.00 | 0.00 | 0.00 | 25 | -103.1 |
| 20260508213821 | 23 | 73 | 3.2 | 8.0 | 0.00 | 0.00 | 0.00 | 27 | -103.1 |
| 20260508213323 | 23 | 167 | 1.6 | 6.4 | 0.00 | 0.00 | 0.00 | 27 | -103.1 |
| 20260508212823 | 23 | 159 | 3.2 | 9.7 | 0.00 | 0.00 | 0.00 | 25 | -103.1 |
| 20260508212325 | 23 | 143 | 3.2 | 9.7 | 0.00 | 0.00 | 0.00 | 25 | -103.0 |
| 20260508211845 | 23 | 143 | 1.6 | 6.4 | 0.00 | 0.00 | 0.00 | 27 | -103.0 |
| 20260508211325 | 23 | 164 | 3.2 | 8.0 | 0.00 | 0.00 | 0.00 | 26 | -103.0 |
| 20260508210825 | 23 | 283 | 4.8 | 9.7 | 0.00 | 0.00 | 0.00 | 28 | -103.0 |
| 20260508210346 | 23 | 82 | 4.8 | 9.7 | 0.00 | 0.00 | 0.00 | 24 | -103.0 |
| 20260508205822 | 23 | 170 | 3.2 | 6.4 | 0.00 | 0.00 | 0.00 | 26 | -103.0 |
| 20260508205324 | 23 | 146 | 0.0 | 6.4 | 0.00 | 0.00 | 0.00 | 32 | -103.0 |
| 20260508204825 | 23 | 336 | 1.6 | 6.4 | 0.00 | 0.00 | 0.00 | 28 | -103.0 |
| 20260508204326 | 23 | 30 | 1.6 | 6.4 | 0.00 | 0.00 | 0.00 | 26 | -103.0 |
| 20260508203826 | 23 | 147 | 3.2 | 6.4 | 0.00 | 0.00 | 0.00 | 26 | -103.0 |
| 20260508203347 | 23 | 159 | 3.2 | 6.4 | 0.00 | 0.00 | 0.00 | 26 | -103.0 |
| 20260508202824 | 23 | 157 | 3.2 | 6.4 | 0.00 | 0.00 | 0.00 | 26 | -103.0 |
| 20260508202323 | 23 | 162 | 1.6 | 8.0 | 0.00 | 0.00 | 0.00 | 27 | -103.0 |
| 20260508201822 | 23 | 163 | 3.2 | 8.0 | 0.00 | 0.00 | 0.00 | 28 | -103.0 |
| 20260508201344 | 23 | 300 | 3.2 | 8.0 | 0.00 | 0.00 | 0.00 | 28 | -103.0 |
| 20260508200824 | 23 | 304 | 1.6 | 8.0 | 0.00 | 0.00 | 0.00 | 28 | -103.0 |
| 20260508200326 | 23 | 307 | 1.6 | 9.7 | 0.00 | 0.00 | 0.00 | 27 | -103.0 |
| 20260508195824 | 23 | 130 | 0.0 | 9.7 | 0.00 | 0.00 | 0.00 | 29 | -103.0 |
| 20260508175816 | 20 | 174 | 1.6 | 4.8 | 0.00 | 0.00 | 0.00 | 32 | -102.9 |
| 20260508175332 | 20 | 127 | 1.6 | 4.8 | 0.00 | 0.00 | 0.00 | 32 | -102.9 |
| 20260508174852 | 20 | 148 | 3.2 | 4.8 | 0.00 | 0.00 | 0.00 | 33 | -102.9 |
| 20260508174312 | 20 | 313 | 1.6 | 6.4 | 0.00 | 0.00 | 0.00 | 35 | -102.9 |
| 20260508173812 | 20 | 326 | 3.2 | 6.4 | 0.00 | 0.00 | 0.00 | 34 | -102.9 |
| 20260508173312 | 19 | 321 | 3.2 | 6.4 | 0.00 | 0.00 | 0.00 | 35 | -102.9 |
| 20260508172829 | 19 | 333 | 1.6 | 6.4 | 0.00 | 0.00 | 0.00 | 35 | -102.9 |
| 20260508172330 | 19 | 340 | 1.6 | 4.8 | 0.00 | 0.00 | 0.00 | 33 | -102.9 |
| 20260508171830 | 19 | 144 | 3.2 | 4.8 | 0.00 | 0.00 | 0.00 | 30 | -102.9 |
| 20260508171331 | 19 | 165 | 1.6 | 4.8 | 0.00 | 0.00 | 0.00 | 33 | -102.9 |
| 20260508170829 | 19 | 125 | 1.6 | 3.2 | 0.00 | 0.00 | 0.00 | 34 | -102.9 |
| 20260508170329 | 19 | 311 | 0.0 | 4.8 | 0.00 | 0.00 | 0.00 | 38 | -102.9 |
| 20260508165825 | 18 | 354 | 1.6 | 4.8 | 0.00 | 0.00 | 0.00 | 39 | -102.9 |
| 20260508165327 | 18 | 149 | 1.6 | 6.4 | 0.00 | 0.00 | 0.00 | 34 | -102.9 |
| 20260508164828 | 18 | 153 | 3.2 | 6.4 | 0.00 | 0.00 | 0.00 | 35 | -102.9 |
| 20260508164331 | 18 | 317 | 0.0 | 3.2 | 0.00 | 0.00 | 0.00 | 34 | -102.9 |
| 20260508163830 | 18 | 311 | 1.6 | 3.2 | 0.00 | 0.00 | 0.00 | 31 | -102.9 |
| 20260508163329 | 18 | 120 | 0.0 | 1.6 | 0.00 | 0.00 | 0.00 | 37 | -102.9 |
| 20260508162843 | 18 | 322 | 0.0 | 3.2 | 0.00 | 0.00 | 0.00 | 36 | -102.9 |
| 20260508162344 | 18 | 319 | 0.0 | 3.2 | 0.00 | 0.00 | 0.00 | 34 | -102.9 |
| 20260508161824 | 17 | 341 | 0.0 | 3.2 | 0.00 | 0.00 | 0.00 | 36 | -102.9 |
| 20260508161324 | 17 | 355 | 0.0 | 3.2 | 0.00 | 0.00 | 0.00 | 39 | -102.9 |
| 20260508160825 | 17 | 357 | 1.6 | 3.2 | 0.00 | 0.00 | 0.00 | 36 | -102.9 |
| 20260508160325 | 17 | 156 | 0.0 | 3.2 | 0.00 | 0.00 | 0.00 | 36 | -102.9 |
| 20260508155841 | 17 | 315 | 1.6 | 3.2 | 0.00 | 0.00 | 0.00 | 36 | -102.9 |
| 20260508155322 | 17 | 328 | 0.0 | 3.2 | 0.00 | 0.00 | 0.00 | 37 | -102.9 |
| 20260508154822 | 17 | 152 | 0.0 | 3.2 | 0.00 | 0.00 | 0.00 | 39 | -102.9 |
| 20260508154324 | 17 | 146 | 1.6 | 3.2 | 0.00 | 0.00 | 0.00 | 43 | -102.9 |
| 20260508153823 | 17 | 300 | 1.6 | 3.2 | 0.00 | 0.00 | 0.00 | 41 | -102.9 |
| 20260508153323 | 17 | 346 | 0.0 | 1.6 | 0.00 | 0.00 | 0.00 | 42 | -102.9 |
| 20260508152826 | 17 | 344 | 0.0 | 1.6 | 0.00 | 0.00 | 0.00 | 40 | -102.9 |
| 20260508152327 | 17 | 345 | 1.6 | 1.6 | 0.00 | 0.00 | 0.00 | 40 | -102.9 |
| 20260508151824 | 17 | 343 | 0.0 | 3.2 | 0.00 | 0.00 | 0.00 | 41 | -102.9 |
| 20260508151324 | 17 | 63 | 0.0 | 1.6 | 0.00 | 0.00 | 0.00 | 41 | -102.9 |
| 20260508150844 | 17 | 344 | 0.0 | 1.6 | 0.00 | 0.00 | 0.00 | 41 | -102.9 |
| 20260508150325 | 16 | 141 | 0.0 | 1.6 | 0.00 | 0.00 | 0.00 | 36 | -102.9 |
| 20260508145821 | 16 | 141 | 0.0 | 1.6 | 0.00 | 0.00 | 0.00 | 39 | -102.9 |
| 20260508145319 | 16 | 140 | 0.0 | 1.6 | 0.00 | 0.00 | 0.00 | 40 | -102.9 |
| 20260508144819 | 16 | 77 | 0.0 | 1.6 | 0.00 | 0.00 | 0.00 | 39 | -102.9 |
| 20260508144323 | 16 | 77 | 0.0 | 1.6 | 0.00 | 0.00 | 0.00 | 40 | -102.9 |
| 20260508143844 | 16 | 77 | 0.0 | 1.6 | 0.00 | 0.00 | 0.00 | 38 | -102.9 |
| 20260508143325 | 16 | 136 | 0.0 | 1.6 | 0.00 | 0.00 | 0.00 | 39 | -102.9 |
| 20260508142824 | 16 | 136 | 0.0 | 1.6 | 0.00 | 0.00 | 0.00 | 40 | -102.9 |
| 20260508142327 | 15 | 135 | 0.0 | 3.2 | 0.00 | 0.00 | 0.00 | 41 | -102.9 |
| 20260508141826 | 15 | 136 | 1.6 | 3.2 | 0.00 | 0.00 | 0.00 | 42 | -103.0 |
| 20260508141326 | 15 | 124 | 0.0 | 1.6 | 0.00 | 0.00 | 0.00 | 44 | -103.0 |
| 20260508140826 | 15 | 139 | 1.6 | 1.6 | 0.00 | 0.00 | 0.00 | 44 | -103.0 |
| 20260508140326 | 15 | 112 | 0.0 | 1.6 | 0.00 | 0.00 | 0.00 | 45 | -103.0 |
| 20260508135822 | 14 | 142 | 0.0 | 4.8 | 0.00 | 0.00 | 0.00 | 45 | -103.0 |
| 20260508135324 | 14 | 157 | 1.6 | 4.8 | 0.00 | 0.00 | 0.00 | 45 | -103.0 |
| 20260508134822 | 14 | 122 | 1.6 | 1.6 | 0.00 | 0.00 | 0.00 | 45 | -103.0 |
| 20260508134325 | 13 | 144 | 0.0 | 1.6 | 0.00 | 0.00 | 0.00 | 49 | -103.0 |
| 20260508133826 | 12 | 145 | 0.0 | 3.2 | 0.00 | 0.00 | 0.00 | 51 | -103.0 |
| 20260508133348 | 12 | 144 | 3.2 | 3.2 | 0.00 | 0.00 | 0.00 | 51 | -103.0 |
| 20260508132828 | 11 | 137 | 1.6 | 4.8 | 0.00 | 0.00 | 0.00 | 54 | -103.0 |
| 20260508132329 | 12 | 288 | 1.6 | 4.8 | 0.00 | 0.00 | 0.00 | 51 | -103.0 |
| 20260508131829 | 12 | 148 | 1.6 | 3.2 | 0.00 | 0.00 | 0.00 | 47 | -103.0 |
| 20260508131331 | 12 | 145 | 0.0 | 3.2 | 0.00 | 0.00 | 0.00 | 49 | -103.0 |
| 20260508130811 | 11 | 145 | 1.6 | 3.2 | 0.00 | 0.00 | 0.00 | 48 | -103.0 |
| 20260508130331 | 11 | 135 | 1.6 | 3.2 | 0.00 | 0.00 | 0.00 | 50 | -103.0 |
| 20260508125825 | 10 | 136 | 0.0 | 3.2 | 0.00 | 0.00 | 0.00 | 51 | -103.1 |
| 20260508125324 | 10 | 127 | 1.6 | 3.2 | 0.00 | 0.00 | 0.00 | 51 | -103.1 |
| 20260508124823 | 10 | 139 | 1.6 | 3.2 | 0.00 | 0.00 | 0.00 | 52 | -103.1 |
| 20260508124323 | 10 | 141 | 1.6 | 3.2 | 0.00 | 0.00 | 0.00 | 53 | -103.1 |
| 20260508123823 | 10 | 112 | 1.6 | 3.2 | 0.00 | 0.00 | 0.00 | 54 | -103.1 |
| 20260508123343 | 10 | 139 | 1.6 | 1.6 | 0.00 | 0.00 | 0.00 | 58 | -103.1 |
| 20260508122820 | 10 | 139 | 0.0 | 3.2 | 0.00 | 0.00 | 0.00 | 60 | -103.1 |
| 20260508122319 | 10 | 139 | 1.6 | 3.2 | 0.00 | 0.00 | 0.00 | 62 | -103.1 |
| 20260508121818 | 9 | 140 | 0.0 | 0.0 | 0.00 | 0.00 | 0.00 | 68 | -103.1 |
| 20260508121320 | 10 | 140 | 0.0 | 0.0 | 0.00 | 0.00 | 0.00 | 75 | -103.1 |
| 20260508120821 | 10 | 140 | 0.0 | 0.0 | 0.00 | 0.00 | 0.00 | 74 | -103.1 |
| 20260508120324 | 10 | 140 | 0.0 | 0.0 | 0.00 | 0.00 | 0.00 | 73 | -103.1 |
| 20260508115842 | 10 | 140 | 0.0 | 0.0 | 0.00 | 0.00 | 0.00 | 72 | -103.1 |
| 20260508115323 | 10 | 140 | 0.0 | 0.0 | 0.00 | 0.00 | 0.00 | 70 | -103.1 |
| 20260508114820 | 10 | 140 | 0.0 | 0.0 | 0.00 | 0.00 | 0.00 | 67 | -103.1 |
| 20260508114342 | 10 | 140 | 0.0 | 0.0 | 0.00 | 0.00 | 0.00 | 57 | -103.1 |
| 20260508113822 | 10 | 140 | 0.0 | 0.0 | 0.00 | 0.00 | 0.00 | 56 | -103.1 |
| 20260508113325 | 10 | 140 | 0.0 | 0.0 | 0.00 | 0.00 | 0.00 | 56 | -103.1 |
| 20260508112825 | 10 | 140 | 0.0 | 0.0 | 0.00 | 0.00 | 0.00 | 53 | -103.1 |
| 20260508112327 | 11 | 141 | 0.0 | 0.0 | 0.00 | 0.00 | 0.00 | 52 | -103.1 |
| 20260508111827 | 11 | 141 | 0.0 | 0.0 | 0.00 | 0.00 | 0.00 | 48 | -103.1 |
| 20260508111331 | 11 | 130 | 0.0 | 1.6 | 0.00 | 0.00 | 0.00 | 48 | -103.1 |
| 20260508110812 | 11 | 129 | 0.0 | 1.6 | 0.00 | 0.00 | 0.00 | 47 | -103.1 |
| 20260508110314 | 11 | 130 | 0.0 | 3.2 | 0.00 | 0.00 | 0.00 | 46 | -103.1 |
| 20260508105830 | 12 | 150 | 1.6 | 3.2 | 0.00 | 0.00 | 0.00 | 45 | -103.1 |
| 20260508105330 | 12 | 137 | 1.6 | 3.2 | 0.00 | 0.00 | 0.00 | 44 | -103.1 |
| 20260508104844 | 12 | 124 | 0.0 | 3.2 | 0.00 | 0.00 | 0.00 | 45 | -103.2 |
| 20260508104324 | 12 | 126 | 1.6 | 3.2 | 0.00 | 0.00 | 0.00 | 44 | -103.2 |
| 20260508103823 | 12 | 118 | 1.6 | 3.2 | 0.00 | 0.00 | 0.00 | 44 | -103.2 |
| 20260508103344 | 12 | 143 | 1.6 | 3.2 | 0.00 | 0.00 | 0.00 | 44 | -103.2 |
| 20260508102822 | 12 | 146 | 3.2 | 3.2 | 0.00 | 0.00 | 0.00 | 45 | -103.2 |
| 20260508102410 | 12 | 141 | 3.2 | 3.2 | 0.00 | 0.00 | 0.00 | 45 | -103.2 |
| 20260508101819 | 12 | 136 | 1.6 | 3.2 | 0.00 | 0.00 | 0.00 | 46 | -103.2 |
| 20260508101321 | 11 | 142 | 1.6 | 4.8 | 0.00 | 0.00 | 0.00 | 47 | -103.2 |
| 20260508100839 | 11 | 136 | 1.6 | 3.2 | 0.00 | 0.00 | 0.00 | 47 | -103.2 |
| 20260508100320 | 11 | 130 | 3.2 | 3.2 | 0.00 | 0.00 | 0.00 | 48 | -103.2 |
| 20260508095819 | 11 | 98 | 1.6 | 3.2 | 0.00 | 0.00 | 0.00 | 46 | -103.2 |
| 20260508095323 | 11 | 82 | 1.6 | 3.2 | 0.00 | 0.00 | 0.00 | 44 | -103.2 |
| 20260508094824 | 12 | 139 | 0.0 | 1.6 | 0.00 | 0.00 | 0.00 | 42 | -103.2 |
| 20260508094344 | 12 | 139 | 0.0 | 3.2 | 0.00 | 0.00 | 0.00 | 41 | -103.2 |
| 20260508093823 | 12 | 150 | 1.6 | 1.6 | 0.00 | 0.00 | 0.00 | 42 | -103.2 |
| 20260508093324 | 12 | 150 | 1.6 | 1.6 | 0.00 | 0.00 | 0.00 | 42 | -103.2 |
| 20260508092845 | 12 | 150 | 0.0 | 1.6 | 0.00 | 0.00 | 0.00 | 42 | -103.2 |
| 20260508092327 | 12 | 150 | 1.6 | 1.6 | 0.00 | 0.00 | 0.00 | 42 | -103.2 |
| 20260508091826 | 12 | 153 | 1.6 | 3.2 | 0.00 | 0.00 | 0.00 | 41 | -103.1 |
| 20260508091327 | 12 | 152 | 1.6 | 1.6 | 0.00 | 0.00 | 0.00 | 40 | -103.1 |
| 20260508090826 | 12 | 158 | 0.0 | 1.6 | 0.00 | 0.00 | 0.00 | 41 | -103.1 |
| 20260508090328 | 12 | 158 | 1.6 | 1.6 | 0.00 | 0.00 | 0.00 | 41 | -103.1 |
| 20260508085825 | 13 | 159 | 0.0 | 3.2 | 0.00 | 0.00 | 0.00 | 39 | -103.2 |
| 20260508085345 | 13 | 159 | 1.6 | 3.2 | 0.00 | 0.00 | 0.00 | 40 | -103.2 |
| 20260508084825 | 13 | 146 | 0.0 | 4.8 | 0.00 | 0.00 | 0.00 | 40 | -103.1 |
| 20260508084347 | 13 | 141 | 3.2 | 4.8 | 0.00 | 0.00 | 0.00 | 41 | -103.2 |
| 20260508083845 | 13 | 144 | 3.2 | 4.8 | 0.00 | 0.00 | 0.00 | 41 | -103.1 |
| 20260508083328 | 13 | 146 | 1.6 | 6.4 | 0.00 | 0.00 | 0.00 | 41 | -103.2 |
| 20260508082829 | 13 | 144 | 3.2 | 6.4 | 0.00 | 0.00 | 0.00 | 40 | -103.1 |
| 20260508082312 | 13 | 141 | 3.2 | 4.8 | 0.00 | 0.00 | 0.00 | 40 | -103.1 |
| 20260508081831 | 13 | 135 | 3.2 | 6.4 | 0.00 | 0.00 | 0.00 | 40 | -103.1 |
| 20260508081312 | 13 | 121 | 1.6 | 6.4 | 0.00 | 0.00 | 0.00 | 40 | -103.1 |
| 20260508080812 | 13 | 153 | 4.8 | 6.4 | 0.00 | 0.00 | 0.00 | 41 | -103.1 |
| 20260508080314 | 13 | 142 | 0.0 | 6.4 | 0.00 | 0.00 | 0.00 | 42 | -103.1 |
| 20260508075830 | 13 | 142 | 4.8 | 6.4 | 0.00 | 0.00 | 0.00 | 42 | -103.1 |
| 20260508075312 | 13 | 141 | 3.2 | 4.8 | 0.00 | 0.00 | 0.00 | 42 | -103.1 |
| 20260508074813 | 13 | 139 | 1.6 | 4.8 | 0.00 | 0.00 | 0.00 | 43 | -103.1 |
| 20260508074315 | 13 | 137 | 3.2 | 4.8 | 0.00 | 0.00 | 0.00 | 43 | -103.1 |
| 20260508073815 | 13 | 138 | 3.2 | 4.8 | 0.00 | 0.00 | 0.00 | 43 | -103.1 |
| 20260508073317 | 13 | 146 | 3.2 | 4.8 | 0.00 | 0.00 | 0.00 | 41 | -103.1 |
| 20260508072815 | 13 | 133 | 1.6 | 3.2 | 0.00 | 0.00 | 0.00 | 42 | -103.1 |
| 20260508072337 | 13 | 132 | 1.6 | 4.8 | 0.00 | 0.00 | 0.00 | 42 | -103.1 |
| 20260508071815 | 13 | 136 | 3.2 | 4.8 | 0.00 | 0.00 | 0.00 | 43 | -103.2 |
| 20260508071316 | 13 | 134 | 3.2 | 4.8 | 0.00 | 0.00 | 0.00 | 43 | -103.2 |
| 20260508070815 | 13 | 139 | 3.2 | 4.8 | 0.00 | 0.00 | 0.00 | 42 | -103.2 |
| 20260508070318 | 13 | 146 | 3.2 | 4.8 | 0.00 | 0.00 | 0.00 | 42 | -103.2 |
| 20260508065836 | 13 | 136 | 1.6 | 4.8 | 0.00 | 0.00 | 0.00 | 43 | -103.1 |
| 20260508065323 | 13 | 137 | 1.6 | 4.8 | 0.00 | 0.00 | 0.00 | 44 | -103.2 |
| 20260508064823 | 13 | 131 | 1.6 | 3.2 | 0.00 | 0.00 | 0.00 | 43 | -103.2 |
| 20260508064326 | 13 | 123 | 1.6 | 3.2 | 0.00 | 0.00 | 0.00 | 43 | -103.2 |
| 20260508063826 | 13 | 133 | 1.6 | 3.2 | 0.00 | 0.00 | 0.00 | 42 | -103.2 |
| 20260508063329 | 13 | 145 | 0.0 | 3.2 | 0.00 | 0.00 | 0.00 | 42 | -103.2 |
| 20260508062830 | 14 | 136 | 1.6 | 4.8 | 0.00 | 0.00 | 0.00 | 41 | -103.2 |
| 20260508062314 | 14 | 147 | 3.2 | 4.8 | 0.00 | 0.00 | 0.00 | 42 | -103.2 |
| 20260508061814 | 14 | 144 | 3.2 | 4.8 | 0.00 | 0.00 | 0.00 | 42 | -103.2 |
| 20260508061316 | 14 | 139 | 1.6 | 4.8 | 0.00 | 0.00 | 0.00 | 42 | -103.2 |
| 20260508060815 | 14 | 134 | 3.2 | 4.8 | 0.00 | 0.00 | 0.00 | 42 | -103.2 |
| 20260508060317 | 14 | 134 | 3.2 | 4.8 | 0.00 | 0.00 | 0.00 | 42 | -103.2 |
| 20260508055827 | 14 | 131 | 3.2 | 4.8 | 0.00 | 0.00 | 0.00 | 43 | -103.2 |
| 20260508055330 | 14 | 136 | 1.6 | 3.2 | 0.00 | 0.00 | 0.00 | 43 | -103.2 |
| 20260508054828 | 14 | 139 | 1.6 | 3.2 | 0.00 | 0.00 | 0.00 | 42 | -103.2 |
| 20260508054330 | 15 | 148 | 1.6 | 3.2 | 0.00 | 0.00 | 0.00 | 42 | -103.2 |
| 20260508053829 | 15 | 146 | 1.6 | 3.2 | 0.00 | 0.00 | 0.00 | 42 | -103.2 |
| 20260508053331 | 15 | 123 | 1.6 | 3.2 | 0.00 | 0.00 | 0.00 | 41 | -103.2 |
| 20260508052832 | 15 | 136 | 1.6 | 3.2 | 0.00 | 0.00 | 0.00 | 41 | -103.2 |
| 20260508052313 | 15 | 139 | 0.0 | 1.6 | 0.00 | 0.00 | 0.00 | 41 | -103.2 |
| 20260508051826 | 15 | 139 | 0.0 | 4.8 | 0.00 | 0.00 | 0.00 | 41 | -103.2 |
| 20260508051327 | 15 | 139 | 1.6 | 6.4 | 0.00 | 0.00 | 0.00 | 41 | -103.2 |
| 20260508050826 | 15 | 129 | 3.2 | 6.4 | 0.00 | 0.00 | 0.00 | 41 | -103.2 |
| 20260508050347 | 15 | 143 | 3.2 | 6.4 | 0.00 | 0.00 | 0.00 | 41 | -103.2 |
| 20260508045821 | 15 | 139 | 3.2 | 4.8 | 0.00 | 0.00 | 0.00 | 40 | -103.2 |
| 20260508045322 | 15 | 141 | 3.2 | 4.8 | 0.00 | 0.00 | 0.00 | 40 | -103.2 |
| 20260508044822 | 15 | 141 | 1.6 | 3.2 | 0.00 | 0.00 | 0.00 | 41 | -103.2 |
| 20260508044341 | 15 | 138 | 1.6 | 3.2 | 0.00 | 0.00 | 0.00 | 40 | -103.2 |
| 20260508043819 | 15 | 143 | 1.6 | 3.2 | 0.00 | 0.00 | 0.00 | 40 | -103.2 |
| 20260508043323 | 16 | 138 | 1.6 | 4.8 | 0.00 | 0.00 | 0.00 | 40 | -103.2 |
| 20260508042826 | 16 | 137 | 3.2 | 4.8 | 0.00 | 0.00 | 0.00 | 40 | -103.2 |
| 20260508042331 | 15 | 141 | 0.0 | 3.2 | 0.00 | 0.00 | 0.00 | 40 | -103.2 |
| 20260508041814 | 16 | 131 | 1.6 | 4.8 | 0.00 | 0.00 | 0.00 | 40 | -103.2 |
| 20260508041320 | 16 | 141 | 3.2 | 4.8 | 0.00 | 0.00 | 0.00 | 40 | -103.2 |
| 20260508040824 | 16 | 142 | 3.2 | 4.8 | 0.00 | 0.00 | 0.00 | 41 | -103.2 |
| 20260508040330 | 16 | 145 | 1.6 | 3.2 | 0.00 | 0.00 | 0.00 | 41 | -103.2 |
| 20260508035829 | 16 | 138 | 0.0 | 1.6 | 0.00 | 0.00 | 0.00 | 40 | -103.2 |
| 20260508035311 | 16 | 130 | 1.6 | 3.2 | 0.00 | 0.00 | 0.00 | 40 | -103.2 |